Wichita, KS

9:57 PM CDT on August 28, 2016 (GMT -0500)
Wichita Eisenhower National Airport

Weather History for KICT - November, 2012

Change the Weather History Date:

Thursday, November 8, 2012

  Actual Average Record
Temperature  
Mean Temperature 62 °F 49 °F  
Max Temperature 77 °F 60 °F 86 °F (2006)
Min Temperature 47 °F 38 °F 16 °F (1991)
Degree Days  
Heating Degree Days 3 16  
Month to date heating degree days 86 115  
Since 1 July heating degree days 346 401  
Cooling Degree Days 0 0  
Month to date cooling degree days 3 0  
Year to date cooling degree days 2304 1684  
Growing Degree Days 12 (Base 50)    
Moisture  
Dew Point 40 °F    
Average Humidity 48    
Maximum Humidity 65    
Minimum Humidity 31    
Precipitation  
Precipitation 0.00 in 0.06 in 2.31 in (1916)
Month to date precipitation 0.00 0.46  
Year to date precipitation 24.12 30.47  
Snow  
Snow 0.00 in 0.00 in 0.30 in (2011)
Month to date snowfall 0.0 0.1  
Since 1 July snowfall 0.0 0.2  
Since 1 September snowfall 0.0 0.2  
Snow Depth 0.00 in    
Sea Level Pressure  
Sea Level Pressure 29.88 in    
Wind  
Wind Speed 16 mph (SSE)    
Max Wind Speed 31 mph    
Max Gust Speed 38 mph    
Visibility 10 miles    
Events      
T = Trace of Precipitation, MM = Missing Value Source: NWS Daily Summary

Daily Weather History Graph

Daily Weather History Graph

Search for Another Location

Airport or City:

Trip Planner

Search our weather history database for the weather conditions in past years. The results will help you decide how hot, cold, wet, or windy it might be!

Date:

Astronomy

Nov. 08, 2012 Rise Set
Actual Time 7:02 AM CST 5:23 PM CST
Civil Twilight 6:35 AM CST 5:51 PM CST
Nautical Twilight 6:03 AM CST 6:22 PM CST
Astronomical Twilight 5:33 AM CST 6:53 PM CST
Moon 1:05 AM CST (11/8) 1:59 PM CST (11/8)
Length of Visible Light 11h 16m
Length of Day
10h 21m
Waning Crescent, 32% of the Moon is Illuminated
Nov 8
Waning Crescent
Nov 13
New
Nov 20
First Quarter
Nov 28
Full
Dec 6
Last Quarter

Hourly Weather History & Observations

Time (CST) Temp. Dew Point Humidity Pressure Visibility Wind Dir Wind Speed Gust Speed Precip Events Conditions
12:53 AM 48.0 °F 28.9 °F 48% 30.03 in 10.0 mi SSE 10.4 mph - N/A   Clear
1:53 AM 48.0 °F 28.9 °F 48% 30.02 in 10.0 mi SSE 12.7 mph - N/A   Clear
2:53 AM 48.0 °F 28.9 °F 48% 30.00 in 10.0 mi SSE 11.5 mph - N/A   Clear
3:53 AM 48.0 °F 30.0 °F 50% 29.98 in 10.0 mi SSE 12.7 mph - N/A   Clear
4:53 AM 48.9 °F 28.9 °F 46% 29.96 in 10.0 mi SSE 16.1 mph 23.0 mph N/A   Clear
5:53 AM 48.9 °F 30.0 °F 48% 29.96 in 10.0 mi SSE 15.0 mph - N/A   Clear
6:53 AM 50.0 °F 30.0 °F 46% 29.94 in 10.0 mi SSE 15.0 mph - N/A   Partly Cloudy
7:53 AM 52.0 °F 30.9 °F 45% 29.94 in 10.0 mi SSE 18.4 mph - N/A   Clear
8:53 AM 57.0 °F 32.0 °F 39% 29.95 in 10.0 mi South 19.6 mph 28.8 mph N/A   Clear
9:53 AM 63.0 °F 36.0 °F 37% 29.92 in 10.0 mi South 25.3 mph 34.5 mph N/A   Clear
10:53 AM 66.0 °F 37.0 °F 34% 29.90 in 10.0 mi South 26.5 mph 34.5 mph N/A   Clear
11:53 AM 70.0 °F 39.0 °F 32% 29.86 in 10.0 mi South 24.2 mph 33.4 mph N/A   Clear
12:53 PM 73.9 °F 42.1 °F 32% 29.82 in 10.0 mi South 23.0 mph 31.1 mph N/A   Partly Cloudy
1:53 PM 75.9 °F 45.0 °F 33% 29.79 in 10.0 mi South 26.5 mph 34.5 mph N/A   Partly Cloudy
2:53 PM 77.0 °F 45.0 °F 32% 29.78 in 10.0 mi South 21.9 mph 29.9 mph N/A   Mostly Cloudy
3:53 PM 75.9 °F 46.0 °F 35% 29.79 in 10.0 mi South 20.7 mph 26.5 mph N/A   Scattered Clouds
4:53 PM 73.9 °F 46.9 °F 38% 29.79 in 10.0 mi South 15.0 mph - N/A   Scattered Clouds
5:53 PM 69.1 °F 48.0 °F 47% 29.81 in 10.0 mi SSE 9.2 mph - N/A   Scattered Clouds
6:53 PM 64.0 °F 48.0 °F 56% 29.83 in 10.0 mi South 8.1 mph - N/A   Scattered Clouds
7:53 PM 62.1 °F 48.0 °F 60% 29.82 in 10.0 mi SSE 8.1 mph - N/A   Scattered Clouds
8:53 PM 63.0 °F 48.9 °F 60% 29.82 in 10.0 mi SSE 10.4 mph - N/A   Mostly Cloudy
9:53 PM 63.0 °F 48.9 °F 60% 29.81 in 10.0 mi SSE 10.4 mph - N/A   Mostly Cloudy
10:53 PM 63.0 °F 50.0 °F 63% 29.80 in 10.0 mi SSE 11.5 mph - N/A   Mostly Cloudy
11:53 PM 62.1 °F 52.0 °F 70% 29.79 in 10.0 mi SSE 12.7 mph - N/A   Mostly Cloudy